Location: Alvediston
(51.0078°N, 2.0364°W)
Time: 18:54:02
(UTC+00:00)

ARGOS Delta rocket - Pass Details

Date: 27 February 2020
Orbit: 636 x 837 km, 96.5° (Epoch: 05 April)

Event Time Altitude Azimuth Distance (km) Brightness Sun altitude
Exits shadow 19:13:07 18° 129° (SE) 1,559 5.1 -14.7°
Maximum altitude 19:15:56 39° 69° (ENE) 974 4.1 -15.1°
Drops below altitude 10° 19:20:10 10° 1° (N) 2,099 6.3 -15.8°
Sets 19:22:32 0° 354° (N) 3,043 7.3 -16.1°
